Terminal Aerodrome Forecast
Issued by NWS Cleveland, OH

Home | Current Version | Previous Version | Text Only | Print | Product List | Glossary Off
Versions: 1 2 3 4 5 6 7 8 9 10 11 12 13 14 15

000
FTUS41 KCLE 261503 AAA
TAFERI
TAF AMD
KERI 261503Z 2615/2712 19007KT P6SM BKN050
     FM261800 20010KT P6SM BKN035
     FM262200 19012KT P6SM SCT035 BKN200
     FM270200 19014G22KT P6SM -SHRA BKN050 OVC150
     FM270600 20015G22KT P6SM SCT040 BKN200=

USA.gov is the U.S. government's official web portal to all federal, state and local government web resources and services.